Inquirer Daily News

Weather

Get conditions and forecasts for any City, State, ZIP code or Country:  
Trenton, NJ
on Sunday, February 10, 2013

Sunday
Previous Day Next Day
Daily Summary
 ActualAverageRecord
Temperature
Mean Temperature °F 33°F  
Max Temperature 36°F 41°F 67°F (1925)
Min Temperature 14°F 25°F -10°F (1899)
Degree Days
Heating Degree Days 40 32  
Month to date heating degree days 370 326  
Since 1 July heating degree days 3078 3272  
Cooling Degree Days 0 0  
Month to date cooling degree days 0 0  
Year to date cooling degree days 0 0  
Moisture
Dew Point 12°F   
Average Humidity 55    
Maximum Humidity 74    
Minimum Humidity 35    
Precipitation
Precipitation 0.00 in 0.08 in 1.20 in (2010)
Month to date precipitation 0.51 0.73  
Year to date precipitation 3.33 3.89  
Wind
Wind Speed 4 mph   
Max Wind Speed 10 mph   
Max Gust Speed 14 mph   
Visibility 10 miles   
Events     

Key: T is trace of precipitation, MM is missing value
Source: NWS Daily Summary
Time(EST)TemperatureDew PointHumidity Pressure Visibility Wind DirectionWind SpeedGust SpeedPrecipitationEvents Conditions
12:53 AM 19.9°F 6.1°F 55% 30.36 in 10.0 miles North 6.9 mph - N/A   Clear
1:53 AM 19.0°F 6.1°F 57% 30.38 in 10.0 miles North 4.6 mph - N/A   Clear
2:53 AM 19.0°F 7.0°F 59% 30.38 in 10.0 miles NW 4.6 mph - N/A   Clear
3:53 AM 17.1°F 8.1°F 68% 30.39 in 10.0 miles West 3.5 mph - N/A   Clear
4:53 AM 17.1°F 8.1°F 68% 30.39 in 10.0 miles North 4.6 mph - N/A   Clear
5:53 AM 17.1°F 8.1°F 68% 30.39 in 10.0 miles North 8.1 mph - N/A   Clear
6:53 AM 16.0°F 8.1°F 71% 30.42 in 10.0 miles NW 3.5 mph - N/A   Clear
8:53 AM 19.9°F 10.0°F 65% 30.47 in 10.0 miles NW 4.6 mph - N/A   Clear
9:53 AM 25.0°F 10.0°F 53% 30.48 in 10.0 miles Calm Calm - N/A   Clear
10:53 AM 26.1°F 10.9°F 53% 30.48 in 10.0 miles Calm Calm - N/A   Clear
11:53 AM 28.9°F 10.0°F 45% 30.45 in 10.0 miles WSW 3.5 mph - N/A   Clear
12:53 PM 32.0°F 9.0°F 38% 30.40 in 10.0 miles SSE 3.5 mph - N/A   Clear
1:53 PM 33.1°F 10.0°F 38% 30.40 in 10.0 miles South 3.5 mph - N/A   Clear
2:53 PM 35.1°F 10.9°F 37% 30.38 in 10.0 miles Calm Calm - N/A   Clear
3:53 PM 36.0°F 12.0°F 37% 30.36 in 10.0 miles Variable 3.5 mph - N/A   Clear
4:53 PM 36.0°F 10.9°F 36% 30.36 in 10.0 miles Calm Calm - N/A   Clear
5:53 PM 33.1°F 12.0°F 42% 30.37 in 10.0 miles Calm Calm - N/A   Clear
6:53 PM 30.9°F 15.1°F 52% 30.36 in 10.0 miles SE 3.5 mph - N/A   Clear
7:53 PM 30.0°F 16.0°F 56% 30.34 in 10.0 miles SE 4.6 mph - N/A   Clear
8:53 PM 32.0°F 19.9°F 61% 30.35 in 10.0 miles South 5.8 mph - N/A   Clear
9:53 PM 30.9°F 19.0°F 61% 30.33 in 10.0 miles SSW 5.8 mph - N/A   Clear
10:53 PM 30.9°F 19.0°F 61% 30.31 in 10.0 miles South 4.6 mph - N/A   Clear
11:53 PM 30.9°F 19.9°F 64% 30.31 in 10.0 miles South 4.6 mph - N/A   Clear
Astronomy
Sunrise:06:58 AM (EST) Moon Rise:06:46 AM (EST)2/10
Sunset:05:29 PM (EST) Moon Set:06:17 PM (EST)2/10
Moon Phase
Feb. 10 Feb. 17 Feb. 25 Mar. 04 Mar. 11

Copyright © 2014 The Weather Underground, Inc.